DL0LA-13 Weather Reports


time (UTC)temp
F
wind
direction
speed
knots
gust
knots
rain 1hr
in
rain 24hr
in
rain mn
in
humidity
%
barometer
mb
20260903060020 59 248 0.0 1.7 0.00 0.00 0.00 82 1022.5
20260903055018 59 231 0.0 0.0 0.00 0.00 0.00 82 1022.4
20260903054020 59 225 0.0 1.7 0.00 0.00 0.00 83 1022.3
20260903053020 59 225 0.0 2.6 0.00 0.00 0.00 82 1022.2
20260903052018 59 248 0.0 1.7 0.00 0.00 0.00 82 1022.2
20260903051018 58 248 0.9 2.6 0.00 0.00 0.00 82 1022.1
20260903050018 58 248 0.9 2.6 0.00 0.00 0.00 82 1022.2
20260903045018 58 225 0.9 3.5 0.00 0.00 0.00 82 1022.1
20260903044018 58 270 0.9 3.5 0.00 0.00 0.00 81 1022.1
20260903043020 59 248 0.9 1.7 0.00 0.00 0.00 81 1022.0
20260903042018 59 248 0.9 2.6 0.00 0.00 0.00 81 1021.9
20260903041019 59 248 0.0 1.7 0.00 0.00 0.00 80 1022.0
20260903040020 59 270 0.0 1.7 0.00 0.00 0.00 80 1021.9
20260903035020 60 270 0.9 1.7 0.00 0.00 0.00 80 1021.9
20260903034020 60 270 0.0 1.7 0.00 0.00 0.00 79 1021.9
20260903033020 60 248 0.9 1.7 0.00 0.00 0.00 79 1022.0
20260903032020 60 248 0.9 2.6 0.00 0.00 0.00 79 1021.9
20260903031021 61 248 0.9 2.6 0.00 0.00 0.00 78 1021.8
20260903030020 61 252 0.0 0.0 0.00 0.00 0.00 78 1021.8
20260903025020 61 232 0.0 0.0 0.00 0.00 0.00 77 1021.9
20260903022019 62 250 0.0 0.0 0.00 0.00 0.00 78 1021.8
20260903021021 62 234 0.0 0.0 0.00 0.00 0.00 77 1021.7
20260903020020 62 264 0.0 0.0 0.00 0.00 0.00 76 1021.6
20260903015020 63 254 0.0 0.0 0.00 0.00 0.00 76 1021.8
20260903014020 63 250 0.0 0.0 0.00 0.00 0.00 76 1021.7
20260903013020 63 273 0.0 0.0 0.00 0.00 0.00 75 1021.8
20260903012019 62 275 0.0 0.0 0.00 0.00 0.00 76 1021.6
20260903011023 62 275 0.0 0.0 0.00 0.00 0.00 75 1021.6
20260903010020 63 266 0.0 0.0 0.00 0.00 0.00 78 1021.5
20260903005019 63 310 0.0 0.0 0.00 0.00 0.00 76 1021.6
20260903003019 63 310 0.0 0.0 0.00 0.00 0.00 78 1021.5
20260903002019 63 310 0.0 0.0 0.00 0.00 0.00 78 1021.4
20260903000020 64 315 0.0 0.9 0.00 0.00 0.00 78 1021.5
20260902235019 64 310 0.0 0.0 0.00 0.00 0.00 76 1021.5
20260902233019 64 315 0.0 0.9 0.00 0.00 0.00 74 1021.5
20260902231019 64 310 0.0 0.0 0.00 0.00 0.00 75 1021.4
20260902230019 65 310 0.0 0.0 0.00 0.00 0.00 74 1021.5
20260902225020 65 315 0.0 0.9 0.00 0.00 0.00 74 1021.5
20260902224019 65 315 0.0 0.9 0.00 0.00 0.00 74 1021.6
20260902223020 65 310 0.0 0.0 0.00 0.00 0.00 74 1021.6
20260902221019 66 293 0.0 1.7 0.00 0.00 0.00 75 1021.6
20260902220020 66 293 0.9 2.6 0.00 0.00 0.00 73 1021.5
20260902215018 66 293 1.7 3.5 0.00 0.00 0.00 72 1021.4
20260902213018 66 270 0.9 5.2 0.00 0.00 0.00 70 1021.4
20260902212018 66 270 0.0 0.9 0.00 0.00 0.00 69 1021.3
20260902211018 66 270 0.0 0.9 0.00 0.00 0.00 69 1021.2
20260902210020 66 270 0.9 3.5 0.00 0.00 0.00 69 1021.2
20260902205018 66 293 0.9 2.6 0.00 0.00 0.00 68 1021.0
20260902204018 67 338 0.0 0.9 0.00 0.00 0.00 67 1021.0
20260902203020 67 338 0.0 0.9 0.00 0.00 0.00 66 1020.9
20260902202020 67 338 0.0 0.0 0.00 0.00 0.00 67 1020.9
20260902201020 67 338 0.0 0.0 0.00 0.00 0.00 68 1020.9
20260902200020 67 338 0.0 0.0 0.00 0.00 0.00 66 1020.8
20260902194018 67 338 0.0 0.9 0.00 0.00 0.00 65 1020.8
20260902193021 67 338 0.0 0.9 0.00 0.00 0.00 64 1020.8
20260902192020 67 338 0.0 0.0 0.00 0.00 0.00 64 1020.7
20260902191020 68 338 0.0 0.0 0.00 0.00 0.00 65 1020.7
20260902190020 68 338 0.0 0.0 0.00 0.00 0.00 62 1020.5
20260902185022 69 338 0.0 0.0 0.00 0.00 0.00 61 1020.5
20260902184020 69 338 0.0 0.0 0.00 0.00 0.00 60 1020.4
20260902182020 71 338 0.0 0.0 0.00 0.00 0.00 58 1020.2
20260902181019 71 338 0.0 0.0 0.00 0.00 0.00 57 1020.1
20260902180019 72 338 0.0 0.0 0.00 0.00 0.00 55 1020.0
20260902175020 72 338 0.0 1.7 0.00 0.00 0.00 55 1019.9
20260902174020 73 338 0.0 0.9 0.00 0.00 0.00 55 1019.7
20260902171020 75 338 0.0 1.7 0.00 0.00 0.00 51 1019.8
20260902170019 75 293 0.9 3.5 0.00 0.00 0.00 50 1019.7
20260902165019 76 270 0.0 1.7 0.00 0.00 0.00 51 1019.9
20260902164020 76 338 0.9 2.6 0.00 0.00 0.00 51 1019.8
20260902162019 76 338 0.0 2.6 0.00 0.00 0.00 52 1019.9
20260902161019 76 338 0.0 2.6 0.00 0.00 0.00 51 1019.9
20260902160020 77 315 0.0 1.7 0.00 0.00 0.00 50 1019.9
20260902155019 77 0 0.9 3.5 0.00 0.00 0.00 48 1019.9
20260902154019 77 293 1.7 5.2 0.00 0.00 0.00 46 1019.9
20260902153020 78 293 3.5 7.8 0.00 0.00 0.00 43 1019.9
20260902152019 78 338 2.6 7.0 0.00 0.00 0.00 46 1020.0
20260902151019 78 293 3.5 7.0 0.00 0.00 0.00 45 1020.1
20260902150019 78 293 0.9 5.2 0.00 0.00 0.00 45 1020.2
20260902145019 78 293 1.7 6.1 0.00 0.00 0.00 44 1020.2
20260902144020 78 293 1.7 6.1 0.00 0.00 0.00 46 1020.3
20260902142019 78 293 1.7 6.1 0.00 0.00 0.00 46 1020.4
20260902141019 78 248 2.6 8.7 0.00 0.00 0.00 44 1020.4
20260902140019 79 293 2.6 7.8 0.00 0.00 0.00 44 1020.4
20260902135020 80 293 2.6 10.4 0.00 0.00 0.00 41 1020.4
20260902134019 81 293 4.3 11.3 0.00 0.00 0.00 41 1020.4
20260902132019 83 293 1.7 6.1 0.00 0.00 0.00 39 1020.6
20260902131019 83 293 3.5 7.8 0.00 0.00 0.00 40 1020.7
20260902130019 85 293 1.7 9.6 0.00 0.00 0.00 39 1020.8
20260902125019 85 270 2.6 9.6 0.00 0.00 0.00 39 1020.8
20260902124019 85 248 0.9 5.2 0.00 0.00 0.00 38 1020.9
20260902123019 85 315 1.7 4.3 0.00 0.00 0.00 39 1021.0
20260902122019 82 315 0.9 2.6 0.00 0.00 0.00 45 1021.0
20260902121019 80 68 0.9 3.5 0.00 0.00 0.00 47 1021.1
20260902120019 78 68 1.7 5.2 0.00 0.00 0.00 47 1021.2
20260902115019 77 23 1.7 3.5 0.00 0.00 0.00 50 1021.4
20260902114020 77 68 0.0 3.5 0.00 0.00 0.00 49 1021.4
20260902113019 76 23 0.9 3.5 0.00 0.00 0.00 49 1021.6
20260902110019 77 281 0.0 0.0 0.00 0.00 0.00 52 1021.6
20260902105019 75 191 0.0 0.0 0.00 0.00 0.00 53 1021.6
20260902104019 74 248 0.0 0.0 0.00 0.00 0.00 54 1021.8
20260902103019 74 144 0.0 0.0 0.00 0.00 0.00 52 1021.7
20260902102019 74 168 0.0 0.0 0.00 0.00 0.00 48 1021.9
20260902101018 75 83 0.0 0.0 0.00 0.00 0.00 52 1022.1
20260902100018 75 138 0.0 0.0 0.00 0.00 0.00 52 1022.2
20260902095019 75 351 0.0 0.0 0.00 0.00 0.00 52 1022.3
20260902094020 74 10 0.0 0.0 0.00 0.00 0.00 51 1022.1
20260902093019 74 183 0.0 0.0 0.00 0.00 0.00 51 1022.1
20260902092018 73 214 0.0 0.0 0.00 0.00 0.00 54 1022.1
20260902090019 74 207 0.0 0.0 0.00 0.00 0.00 52 1022.1
20260902085018 75 298 0.0 0.0 0.00 0.00 0.00 53 1022.3
20260902083018 75 100 0.0 0.0 0.00 0.00 0.00 51 1022.1
20260902082019 75 94 0.0 0.0 0.00 0.00 0.00 49 1022.0
20260902081018 76 97 0.0 0.0 0.00 0.00 0.00 48 1022.0
20260902080019 76 114 0.0 0.0 0.00 0.00 0.00 53 1022.0
20260902075019 76 104 0.0 0.0 0.00 0.00 0.00 55 1022.1
20260902073019 71 137 0.0 0.0 0.00 0.00 0.00 67 1022.0
20260902071020 66 232 0.0 0.0 0.00 0.00 0.00 74 1022.2
20260902070018 64 232 0.0 0.0 0.00 0.00 0.00 78 1022.1
20260902065018 62 251 0.0 0.0 0.00 0.00 0.00 84 1022.1
20260902064018 59 280 0.0 0.0 0.00 0.00 0.00 86 1022.0
20260902063021 58 19 0.0 0.0 0.00 0.00 0.00 88 1021.9
20260902062018 57 19 0.0 0.0 0.00 0.00 0.00 88 1021.9